Fort Smith, AR

10:22 PM CDT on July 23, 2017 (GMT -0500)
Fort Smith Regional

Weather History for KFSM - January, 2015

Change the Weather History Date:

Saturday, January 24, 2015

  Actual Average Record
Temperature  
Mean Temperature 42 °F 40 °F  
Max Temperature 56 °F 51 °F 80 °F (1950)
Min Temperature 27 °F 29 °F -7 °F (1894)
Degree Days  
Heating Degree Days 23 25  
Month to date heating degree days 658 620  
Since 1 July heating degree days 1936 1919  
Moisture  
Dew Point 30 °F    
Average Humidity 63    
Maximum Humidity 85    
Minimum Humidity 41    
Precipitation  
Precipitation 0.00 in 0.10 in 4.83 in (1949)
Month to date precipitation 2.16 2.15  
Year to date precipitation 2.16 2.15  
Sea Level Pressure  
Sea Level Pressure 30.02 in    
Wind  
Wind Speed 6 mph (WSW)    
Max Wind Speed 15 mph    
Max Gust Speed 19 mph    
Visibility 10 miles    
Events      
T = Trace of Precipitation, MM = Missing Value Source: NWS Daily Summary

Daily Weather History Graph

Daily Weather History Graph

Search for Another Location

Airport or City:

Trip Planner

Search our weather history database for the weather conditions in past years. The results will help you decide how hot, cold, wet, or windy it might be!

Date:

Astronomy

Jan. 24, 2015 Rise Set
Actual Time 7:22 AM CST 5:37 PM CST
Civil Twilight 6:55 AM CST 6:04 PM CST
Nautical Twilight 6:24 AM CST 6:35 PM CST
Astronomical Twilight 5:54 AM CST 7:05 PM CST
Moon 10:02 AM CST 10:43 PM CST
Length of Visible Light 11h 09m
Length of Day
10h 15m
Waxing Crescent, 24% of the Moon is Illuminated
Jan 24
Waxing Crescent
Jan 26
First Quarter
Feb 3
Full
Feb 11
Last Quarter
Feb 18
New

Hourly Weather History & Observations

Time (CST) Temp. Windchill Dew Point Humidity Pressure Visibility Wind Dir Wind Speed Gust Speed Precip Events Conditions
12:53 AM 33.1 °F 30.0 °F 26.1 °F 75% 30.09 in 10.0 mi WSW 3.5 mph - N/A   Clear
1:53 AM 30.9 °F 26.2 °F 25.0 °F 79% 30.09 in 9.0 mi WSW 4.6 mph - N/A   Clear
2:53 AM 28.9 °F 25.2 °F 24.1 °F 82% 30.08 in 7.0 mi WSW 3.5 mph - N/A   Clear
3:53 AM 30.0 °F 25.2 °F 25.0 °F 82% 30.06 in 7.0 mi West 4.6 mph - N/A   Clear
4:53 AM 28.0 °F - 24.1 °F 85% 30.06 in 10.0 mi Calm Calm - N/A   Clear
5:53 AM 30.0 °F 25.2 °F 24.1 °F 79% 30.07 in 10.0 mi West 4.6 mph - N/A   Clear
6:53 AM 28.9 °F 23.9 °F 25.0 °F 85% 30.08 in 10.0 mi SW 4.6 mph - N/A   Clear
7:53 AM 28.9 °F 25.2 °F 25.0 °F 85% 30.09 in 10.0 mi WSW 3.5 mph - N/A   Clear
8:53 AM 34.0 °F 26.6 °F 28.0 °F 79% 30.10 in 10.0 mi WSW 9.2 mph - N/A   Clear
9:53 AM 39.0 °F 31.8 °F 28.9 °F 67% 30.12 in 10.0 mi West 11.5 mph - N/A   Clear
10:53 AM 42.8 °F 37.0 °F 30.2 °F 61% 30.10 in 10.0 mi WSW 10.4 mph - N/A   Clear
11:53 AM 46.9 °F - 30.0 °F 52% 30.09 in 10.0 mi WSW 11.5 mph - N/A   Clear
12:53 PM 51.1 °F - 30.9 °F 46% 30.04 in 10.0 mi West 11.5 mph - N/A   Clear
1:53 PM 53.1 °F - 30.9 °F 43% 30.00 in 10.0 mi SW 10.4 mph - N/A   Clear
2:53 PM 55.0 °F - 33.1 °F 43% 29.98 in 10.0 mi WSW 11.5 mph - N/A   Clear
3:53 PM 55.4 °F - 33.8 °F 44% 29.96 in 10.0 mi WSW 12.7 mph - N/A   Clear
4:53 PM 55.0 °F - 34.0 °F 45% 29.95 in 10.0 mi WSW 9.2 mph - N/A   Clear
5:53 PM 50.0 °F - 34.0 °F 54% 29.95 in 10.0 mi SW 3.5 mph - N/A   Clear
6:53 PM 46.0 °F 42.5 °F 35.1 °F 66% 29.96 in 10.0 mi SW 6.9 mph - N/A   Clear
7:53 PM 43.0 °F 41.3 °F 33.1 °F 68% 29.95 in 10.0 mi West 3.5 mph - N/A   Clear
8:53 PM 42.1 °F 38.4 °F 32.0 °F 67% 29.92 in 10.0 mi WSW 5.8 mph - N/A   Clear
9:53 PM 42.1 °F 40.2 °F 32.0 °F 67% 29.91 in 10.0 mi West 3.5 mph - N/A   Clear
10:53 PM 39.2 °F - 32.0 °F 75% 29.90 in 10.0 mi Calm Calm - N/A   Clear
11:53 PM 39.0 °F - 32.0 °F 76% 29.89 in 10.0 mi Calm Calm - N/A   Clear